Location: DARK SKY Beskydy - Park tmavé oblohy, www.darkskybeskydy.cz
(49.4926°N, 18.5016°E)
Time: 18:57:43
(UTC+02:00)

PCSat - Pass Details

Date: 09 August 2024
Orbit: 781 x 793 km, 67.1° (Epoch: 08 September)

Event Time Altitude Azimuth Distance (km) Brightness Sun altitude
Rises 23:19:12 0° 319° (NW) 3,299 14.1 -21.9°
Reaches altitude 10° 23:22:51 10° 344° (NNW) 2,369 13.2 -22.1°
Maximum altitude 23:25:44 14° 16° (NNE) 2,078 12.4 -22.3°
Drops below altitude 10° 23:28:37 10° 48° (NE) 2,367 12.3 -22.5°
Sets 23:32:16 0° 73° (ENE) 3,295 12.7 -22.7°
